Butler, PA

12:51 PM EST on December 12, 2019 (GMT -0500)
Butler County-Scholter

Weather History for KBTP - June, 2019

Change the Weather History Date:

Saturday, June 8, 2019

  Actual Average Record
Temperature  
Mean Temperature 67 °F -  
Max Temperature 79 °F 72 °F 91 °F (2011)
Min Temperature 55 °F 54 °F 31 °F (1977)
Cooling Degree Days 2    
Growing Degree Days 17 (Base 50)    
Moisture  
Dew Point 54 °F    
Average Humidity 62    
Maximum Humidity 90    
Minimum Humidity 45    
Precipitation  
Precipitation 0.00 in - - ()
Sea Level Pressure  
Sea Level Pressure 30.09 in    
Wind  
Wind Speed 9 mph (ENE)    
Max Wind Speed 15 mph    
Max Gust Speed 23 mph    
Visibility 10 miles    
Events      
Averages and records for this station are not official NWS values.
T = Trace of Precipitation, MM = Missing Value Source: NWS Daily Summary

Daily Weather History Graph

Daily Weather History Graph

Search for Another Location

Airport or City:

Astronomy

Jun. 08, 2019 Rise Set
Actual Time 5:48 AM EDT 8:49 PM EDT
Civil Twilight 5:15 AM EDT 9:22 PM EDT
Nautical Twilight 4:33 AM EDT 10:04 PM EDT
Astronomical Twilight 3:44 AM EDT 10:54 PM EDT
Moon 11:15 AM EDT (6/8) 12:49 AM EDT (6/8)
Length of Visible Light 16h 07m
Length of Day
15h 01m
Waxing Crescent, 32% of the Moon is Illuminated
Jun 8
Waxing Crescent
Jun 10
First Quarter
Jun 17
Full
Jun 25
Last Quarter
Jul 2
New

Hourly Weather History & Observations

Time (EDT) Temp. Dew Point Humidity Pressure Visibility Wind Dir Wind Speed Gust Speed Precip Events Conditions
12:56 AM 59.0 °F 53.1 °F 81% 30.04 in 10.0 mi NE 4.6 mph - N/A   Clear
1:56 AM 57.0 °F 53.1 °F 87% 30.05 in 10.0 mi NE 5.8 mph - N/A   Clear
2:56 AM 55.9 °F 53.1 °F 90% 30.05 in 10.0 mi NNE 6.9 mph - N/A   Clear
3:56 AM 57.0 °F 52.0 °F 83% 30.06 in 10.0 mi NE 8.1 mph - N/A   Clear
4:56 AM 57.9 °F 51.1 °F 78% 30.06 in 5.0 mi NE 9.2 mph - N/A   Haze
5:56 AM 57.9 °F 51.1 °F 78% 30.07 in 10.0 mi NE 8.1 mph - N/A   Clear
6:56 AM 61.0 °F 52.0 °F 72% 30.09 in 10.0 mi East 9.2 mph - N/A   Clear
7:56 AM 63.0 °F 52.0 °F 67% 30.09 in 10.0 mi East 11.5 mph - N/A   Clear
8:56 AM 66.9 °F 52.0 °F 59% 30.09 in 10.0 mi East 10.4 mph 17.3 mph N/A   Clear
9:56 AM 69.1 °F 52.0 °F 54% 30.10 in 10.0 mi East 15.0 mph 23.0 mph N/A   Clear
10:56 AM 71.1 °F 53.1 °F 53% 30.11 in 10.0 mi ESE 10.4 mph - N/A   Clear
11:56 AM 73.0 °F 55.0 °F 53% 30.11 in 10.0 mi East 10.4 mph 17.3 mph N/A   Clear
12:56 PM 75.0 °F 55.0 °F 50% 30.11 in 10.0 mi ENE 13.8 mph - N/A   Clear
1:56 PM 77.0 °F 55.0 °F 47% 30.11 in 10.0 mi ESE 10.4 mph 17.3 mph N/A   Clear
2:56 PM 78.1 °F 55.9 °F 46% 30.10 in 10.0 mi ENE 12.7 mph 23.0 mph N/A   Clear
3:56 PM 79.0 °F 57.0 °F 47% 30.09 in 10.0 mi East 15.0 mph 21.9 mph N/A   Clear
4:56 PM 79.0 °F 55.9 °F 45% 30.08 in 10.0 mi ESE 15.0 mph - N/A   Clear
5:56 PM 77.0 °F 55.0 °F 47% 30.09 in 10.0 mi East 9.2 mph - N/A   Clear
6:56 PM 77.0 °F 55.9 °F 48% 30.09 in 10.0 mi East 10.4 mph - N/A   Clear
7:56 PM 73.0 °F 57.0 °F 57% 30.10 in 10.0 mi East 10.4 mph - N/A   Clear
8:56 PM 71.1 °F 55.9 °F 59% 30.11 in 10.0 mi East 10.4 mph - N/A   Clear
9:56 PM 70.0 °F 54.0 °F 57% 30.12 in 10.0 mi East 9.2 mph - N/A   Clear
10:56 PM 70.0 °F 54.0 °F 57% 30.12 in 10.0 mi East 8.1 mph - N/A   Clear
11:56 PM 66.0 °F 54.0 °F 65% 30.12 in 10.0 mi East 8.1 mph - N/A   Clear